CSG4526 VHHH-ZSPD

Flight info

Callsign CSG4526
Flight time N/A
Altitude 33000
Route VHHH/07C N0498F330 LEKE1Y LEKEN V601 DOTMI/K0924S1005 A470 LJG B221 SHZ W58 BK ZSPD/34R
Aircraft B77L/H-V/N

Departure

Time 2026-05-07 08:44
Airport Hong Kong International Airport (VHHH)

Arrival

Time N/A
Airport Shanghai Pudong International Airport (ZSPD)
Time Latitude Longitude Altitude Speed Heading
2026-05-07 08:12 22.30145 113.92368 67 ft 0 kts 341°
2026-05-07 08:29 22.30142 113.92369 40 ft 1 kts 341°
2026-05-07 08:29 22.30134 113.92372 40 ft 1 kts 341°
2026-05-07 08:29 22.30127 113.92374 38 ft 1 kts 340°
2026-05-07 08:29 22.30120 113.92377 38 ft 1 kts 340°
2026-05-07 08:30 22.30112 113.92380 38 ft 1 kts 340°
2026-05-07 08:30 22.30103 113.92383 37 ft 1 kts 340°
2026-05-07 08:30 22.30094 113.92387 38 ft 1 kts 340°
2026-05-07 08:30 22.30086 113.92390 38 ft 1 kts 326°
2026-05-07 08:31 22.30078 113.92397 36 ft 1 kts 310°
2026-05-07 08:31 22.30072 113.92405 38 ft 1 kts 301°
2026-05-07 08:31 22.30068 113.92414 37 ft 1 kts 277°
2026-05-07 08:31 22.30067 113.92419 36 ft 0 kts 256°
2026-05-07 08:32 22.30068 113.92423 36 ft 1 kts 252°
2026-05-07 08:37 22.30065 113.92412 36 ft 6 kts 252°
2026-05-07 08:37 22.30037 113.92330 40 ft 15 kts 249°
2026-05-07 08:38 22.29998 113.92213 38 ft 18 kts 250°
2026-05-07 08:38 22.29955 113.92076 40 ft 21 kts 251°
2026-05-07 08:38 22.29909 113.91935 40 ft 19 kts 250°
2026-05-07 08:38 22.29870 113.91816 40 ft 15 kts 251°
2026-05-07 08:39 22.29928 113.91736 40 ft 17 kts 338°
2026-05-07 08:39 22.30034 113.91685 40 ft 13 kts 307°
2026-05-07 08:39 22.30016 113.91587 40 ft 15 kts 250°
2026-05-07 08:39 22.29976 113.91462 40 ft 20 kts 250°
2026-05-07 08:40 22.29925 113.91306 40 ft 24 kts 251°
2026-05-07 08:40 22.29867 113.91125 40 ft 24 kts 251°
2026-05-07 08:40 22.29807 113.90940 40 ft 28 kts 250°
2026-05-07 08:40 22.29741 113.90736 40 ft 27 kts 250°
2026-05-07 08:41 22.29679 113.90545 40 ft 29 kts 251°
2026-05-07 08:41 22.29613 113.90339 40 ft 22 kts 251°
2026-05-07 08:41 22.29568 113.90201 40 ft 21 kts 250°
2026-05-07 08:41 22.29515 113.90034 40 ft 25 kts 251°
2026-05-07 08:42 22.29500 113.89878 40 ft 21 kts 301°
2026-05-07 08:42 22.29626 113.89847 40 ft 15 kts 38°
2026-05-07 08:42 22.29658 113.89911 40 ft 0 kts 70°
2026-05-07 08:43 22.29658 113.89913 40 ft 5 kts 70°
2026-05-07 08:43 22.29738 113.90158 40 ft 71 kts 71°
2026-05-07 08:43 22.29974 113.90891 40 ft 134 kts 71°
2026-05-07 08:43 22.30344 113.92026 41 ft 183 kts 70°
2026-05-07 08:44 22.30804 113.93358 362 ft 195 kts 68°
2026-05-07 08:44 22.31261 113.94812 769 ft 208 kts 72°
2026-05-07 08:44 22.31688 113.96201 1740 ft 186 kts 73°
2026-05-07 08:44 22.32110 113.97521 2339 ft 189 kts 73°
2026-05-07 08:45 22.32567 113.98949 2551 ft 212 kts 73°
2026-05-07 08:45 22.33076 114.00544 2742 ft 237 kts 72°
2026-05-07 08:45 22.33635 114.02293 3103 ft 252 kts 73°
2026-05-07 08:45 22.33907 114.04189 3498 ft 263 kts 97°
2026-05-07 08:46 22.33324 114.06071 4095 ft 270 kts 123°
2026-05-07 08:46 22.32057 114.07590 4714 ft 277 kts 144°
2026-05-07 08:46 22.30342 114.08533 5404 ft 278 kts 166°
2026-05-07 08:46 22.28438 114.08777 6190 ft 275 kts 185°
2026-05-07 08:47 22.26521 114.08683 6744 ft 280 kts 183°
2026-05-07 08:47 22.24559 114.08669 7427 ft 283 kts 182°
2026-05-07 08:47 22.22589 114.08664 8155 ft 284 kts 183°
2026-05-07 08:47 22.20618 114.08650 8899 ft 285 kts 183°
2026-05-07 08:48 22.18653 114.08638 9590 ft 286 kts 181°
2026-05-07 08:48 22.16685 114.09051 9991 ft 298 kts 155°
2026-05-07 08:48 22.15055 114.10549 10188 ft 325 kts 125°
2026-05-07 08:48 22.14022 114.12794 10331 ft 342 kts 115°
2026-05-07 08:49 22.12977 114.15187 10485 ft 364 kts 118°
2026-05-07 08:49 22.11785 114.17692 10698 ft 384 kts 119°
2026-05-07 08:49 22.10536 114.20290 11186 ft 395 kts 118°
2026-05-07 08:49 22.09265 114.22952 11832 ft 403 kts 118°
2026-05-07 08:50 22.07947 114.25610 12536 ft 401 kts 123°
2026-05-07 08:50 22.06093 114.27847 12942 ft 403 kts 146°
2026-05-07 08:50 22.03731 114.29459 13390 ft 406 kts 150°
2026-05-07 08:50 22.01344 114.31167 13907 ft 415 kts 146°
2026-05-07 08:51 21.99042 114.32995 14657 ft 417 kts 145°
2026-05-07 08:51 21.96710 114.34868 15407 ft 419 kts 146°
2026-05-07 08:51 21.94356 114.36740 16063 ft 423 kts 146°
2026-05-07 08:51 21.91964 114.38625 16664 ft 428 kts 146°
2026-05-07 08:52 21.89541 114.40530 17274 ft 433 kts 146°
2026-05-07 08:52 21.87234 114.42603 17668 ft 436 kts 134°
2026-05-07 08:52 21.85643 114.45421 18033 ft 450 kts 110°
2026-05-07 08:52 21.85095 114.48745 18596 ft 454 kts 90°
2026-05-07 08:53 21.85316 114.52125 19101 ft 452 kts 83°
2026-05-07 08:53 21.85631 114.55524 19473 ft 460 kts 84°
2026-05-07 08:53 21.85914 114.58969 19981 ft 464 kts 85°
2026-05-07 08:53 21.86186 114.62439 20564 ft 465 kts 85°
2026-05-07 08:54 21.86452 114.65880 21111 ft 468 kts 85°
2026-05-07 08:54 21.86633 114.68239 21454 ft 470 kts 85°
2026-05-07 08:54 21.86989 114.72920 22089 ft 476 kts 85°
2026-05-07 08:54 21.87258 114.76481 22571 ft 479 kts 85°
2026-05-07 08:55 21.87528 114.80070 23049 ft 483 kts 85°
2026-05-07 08:55 21.87711 114.82516 23373 ft 485 kts 85°
2026-05-07 08:55 21.88072 114.87330 23908 ft 489 kts 85°
2026-05-07 08:55 21.88256 114.89801 24177 ft 491 kts 85°
2026-05-07 08:56 21.88511 114.93427 24568 ft 493 kts 86°
2026-05-07 08:56 21.88661 114.97130 24965 ft 496 kts 88°
2026-05-07 08:56 21.88749 115.00850 25355 ft 499 kts 88°
2026-05-07 08:56 21.88828 115.04594 25741 ft 501 kts 88°
2026-05-07 08:57 21.88920 115.08403 26120 ft 504 kts 88°
2026-05-07 08:57 21.89025 115.12139 26478 ft 507 kts 88°
2026-05-07 08:57 21.89142 115.15946 26826 ft 510 kts 87°
2026-05-07 08:57 21.89264 115.19767 27178 ft 512 kts 87°
2026-05-07 08:58 21.89385 115.23610 27538 ft 515 kts 87°
2026-05-07 08:58 21.89503 115.27480 27891 ft 518 kts 87°
2026-05-07 08:58 21.89620 115.31366 28215 ft 521 kts 87°
2026-05-07 08:58 21.89737 115.35277 28546 ft 523 kts 87°
2026-05-07 08:59 21.89853 115.39203 28852 ft 526 kts 87°
2026-05-07 08:59 21.89970 115.43156 29157 ft 529 kts 87°
2026-05-07 08:59 21.90086 115.47125 29460 ft 531 kts 87°
2026-05-07 08:59 21.90202 115.51117 29757 ft 534 kts 87°
2026-05-07 09:00 21.90317 115.55119 30086 ft 534 kts 87°
2026-05-07 09:00 21.90433 115.59115 30454 ft 533 kts 86°
2026-05-07 09:00 21.90689 115.63082 30881 ft 530 kts 82°
2026-05-07 09:00 21.91307 115.66976 31314 ft 526 kts 75°
2026-05-07 09:01 21.92146 115.70741 31767 ft 523 kts 74°
2026-05-07 09:01 21.92976 115.74561 32143 ft 524 kts 75°
2026-05-07 09:01 21.93775 115.78392 32467 ft 524 kts 75°
2026-05-07 09:01 21.94554 115.82223 32857 ft 523 kts 75°
2026-05-07 09:02 21.96100 115.89923 33179 ft 527 kts 75°
2026-05-07 09:02 21.96872 115.93774 33653 ft 523 kts 75°
2026-05-07 09:02 21.97639 115.97592 34140 ft 519 kts 75°
2026-05-07 09:03 21.98404 116.01392 34553 ft 516 kts 75°
2026-05-07 09:03 21.99163 116.05167 34892 ft 515 kts 75°
2026-05-07 09:03 22.01468 116.12370 34929 ft 505 kts 51°
2026-05-07 09:04 22.03824 116.15108 34911 ft 495 kts 33°
2026-05-07 09:04 22.06739 116.17002 34921 ft 486 kts 20°
2026-05-07 09:04 22.13112 116.18955 34891 ft 474 kts 359°
2026-05-07 09:05 22.19643 116.18694 34907 ft 469 kts 353°
2026-05-07 09:05 22.26190 116.18356 34909 ft 471 kts 354°
2026-05-07 09:06 22.32759 116.18107 34919 ft 473 kts 355°
2026-05-07 09:06 22.39334 116.17894 34922 ft 473 kts 355°
2026-05-07 09:07 22.45919 116.17683 34924 ft 473 kts 354°
2026-05-07 09:07 22.52489 116.17469 34912 ft 472 kts 354°
2026-05-07 09:08 22.59040 116.17253 34913 ft 470 kts 354°
2026-05-07 09:08 22.65537 116.17039 34918 ft 469 kts 354°
2026-05-07 09:09 22.71989 116.17992 34921 ft 477 kts 16°
2026-05-07 09:09 22.77815 116.21559 34925 ft 489 kts 34°
2026-05-07 09:10 22.83142 116.26184 34924 ft 491 kts 33°
2026-05-07 09:10 22.88610 116.30749 34932 ft 500 kts 33°
2026-05-07 09:11 22.94171 116.35362 34924 ft 503 kts 33°
2026-05-07 09:11 22.99744 116.39978 34916 ft 503 kts 33°
2026-05-07 09:12 23.05317 116.44573 34917 ft 502 kts 33°
2026-05-07 09:12 23.10836 116.49134 34916 ft 501 kts 33°
2026-05-07 09:13 23.16376 116.53720 34916 ft 500 kts 33°
2026-05-07 09:13 23.21902 116.58299 34917 ft 499 kts 33°
2026-05-07 09:14 23.27429 116.62884 34916 ft 499 kts 33°
2026-05-07 09:14 23.32953 116.67473 34918 ft 500 kts 33°
2026-05-07 09:15 23.38490 116.72078 34913 ft 501 kts 33°
2026-05-07 09:15 23.43997 116.76728 34915 ft 503 kts 37°
2026-05-07 09:16 23.48951 116.82162 34925 ft 507 kts 43°
2026-05-07 09:16 23.53758 116.87719 34920 ft 507 kts 43°
2026-05-07 09:17 23.58650 116.93290 34916 ft 508 kts 43°
2026-05-07 09:17 23.63536 116.98837 34918 ft 509 kts 43°
2026-05-07 09:18 23.68427 117.04402 34923 ft 509 kts 43°
2026-05-07 09:18 23.73330 117.09991 34929 ft 510 kts 43°
2026-05-07 09:19 23.78285 117.15516 34914 ft 509 kts 39°
2026-05-07 09:19 23.83552 117.20652 34921 ft 507 kts 37°
2026-05-07 09:20 23.88867 117.25704 34919 ft 506 kts 37°
2026-05-07 09:20 23.94111 117.30785 34925 ft 507 kts 38°
2026-05-07 09:21 23.99362 117.35933 34923 ft 507 kts 38°